ARIANE 1 DEB

Satellite information

Favourite Embed

Satellite Type and Status

DEBRISIN ORBIT

Key statistics

Satellite ARIANE 1 DEB at a glance.

Uptime

14381

Days in orbit

Revolutions

≈ 14.4

Per day

Orbit

SSO

Sun Synchronous Orbit

Inclination

98.2

Latest

Satellite identification and parameters

Extended collection of information and parameters for ARIANE 1 DEB.

Object identification

Identified? True

Debris? True

Object name: ARIANE 1 DEB

International designator: 1986-019ME

Object number (NORAD): 17815

Object ID (CCSDS): 17815

Country: FRANCE (FR)

Current information (Y/N): Y

RCS size: SMALL

Orbital parameters

Period: 99.789 minutes

Inclination: 98.168 deg

SMA: 7126.614 km

Apoapsis: 768.214 km

Periapsis: 728.743 km

RAAN: 180.7536 deg

Eccentricy: 0.0027693

Argument of periapsis: 80.6928 deg

Mean anomaly: 309.4316 deg

Mean motion: 14.43038535 rev/day

Mean motion (dot): 0.000008 rev/day2

B* drag term: 0.00024976 1/REarth

Two-line elements (TLE)

Creation date: July 8, 2025, 2:27 a.m.

Reference frame: TEME

Reference center: EARTH

Epoch: July 7, 2025, 10:43 p.m. UTC

TLE line 0: 0 ARIANE 1 DEB

TLE line 1: 1 17815U 86019ME 25188.94696628 .00000800 00000-0 24976-3 0 9999

TLE line 2: 2 17815 98.1680 180.7536 0027693 80.6928 309.4316 14.43038535 12854

Live tracking on map

Real-time ground track for satellite ARIANE 1 DEB.

In-orbit conjunctions

A list of the most updated potential collisions computed for object ARIANE 1 DEB.

Target Orbit TCA Probability of collision Miss distance Type
CZ-2D DEB SSO 2025-06-12 12:07:25 0.0002079312 111.0 (m) DEBRIS

Associated space launch

SPOT 1 is a French Earth observation satellite. Viking is Sweden's first satellite.

ARIANE 1 DEB was lifted into orbit during the mission ‘Ariane 1 | SPOT 1 & Viking’, on board a Ariane 1 space rocket.

The launch took place on Feb. 22, 1986, 1:44 a.m. from Ariane Launch Area 1 (ELV).

For more information about the launch, click the button.

Launch to space Ariane 1 | SPOT 1 & Viking
Ariane 1 | SPOT 1 & Viking

Agency: N/A

Status: Launch Successful

Launch date: Feb. 22, 1986, 1:44 a.m. UTC

Rocket: Ariane 1

Launch pad: Ariane Launch Area 1 (ELV)

Location: Guiana Space Centre, French Guiana

...

Latest news about this satellite

There are no fresh news available about this satellite. Check back as we update our databases every day.


Newsletter sign-up

Weekly statistics, charts and insights to help you stay on top of the space industry.